Weather History for KABE - June, 2013

Change the Weather History Date:

Friday, June 28, 2013

  Actual Average Record
Temperature  
Mean Temperature 76 °F 72 °F  
Max Temperature 85 °F 83 °F 96 °F (1948)
Min Temperature 66 °F 61 °F 49 °F (1970)
Degree Days  
Heating Degree Days 0 0  
Month to date heating degree days 9 32  
Since 1 June heating degree days 9 32  
Since 1 July heating degree days 5404 5800  
Cooling Degree Days 11 7  
Month to date cooling degree days 170 140  
Year to date cooling degree days 242 185  
Since 1 June cooling degree days 170 140  
Growing Degree Days 26 (Base 50)    
Moisture  
Dew Point 67 °F    
Average Humidity 74    
Maximum Humidity 93    
Minimum Humidity 55    
Precipitation  
Precipitation T in 0.15 in 2.27 in (1946)
Month to date precipitation 6.81 4.01  
Year to date precipitation 20.36 20.83  
Snow  
Snow 0.00 in 0.00 in 0.00 in (2002)
Month to date snowfall 0.0 0.0  
Since 1 June snowfall 0.0 0.0  
Since 1 July snowfall 21.4 32.9  
Snow Depth 0.00 in    
Sea Level Pressure  
Sea Level Pressure 29.53 in    
Wind  
Wind Speed 6 mph (WSW)    
Max Wind Speed 16 mph    
Max Gust Speed 23 mph    
Visibility 10 miles    
Events Rain    
T = Trace of Precipitation, MM = Missing Value Source: NWS Daily Summary

Daily Weather History Graph

Daily Weather History Graph

Search for Another Location

Airport or City:

Trip Planner

Search our weather history database for the weather conditions in past years. The results will help you decide how hot, cold, wet, or windy it might be!

Date:

Astronomy

Jun. 28, 2013 Rise Set
Actual Time 5:33 AM EDT 8:36 PM EDT
Civil Twilight 5:00 AM EDT 9:10 PM EDT
Nautical Twilight 4:17 AM EDT 9:52 PM EDT
Astronomical Twilight 3:27 AM EDT 10:42 PM EDT
Moon No Moon Rise 11:40 AM EDT (6/28)
Length of Visible Light 16h 10m
Length of Day
15h 03m
Waning Gibbous, 66% of the Moon is Illuminated
Jun 28
Waning Gibbous
Jun 30
Last Quarter
Jul 8
New
Jul 15
First Quarter
Jul 22
Full

Hourly Weather History & Observations

Time (EDT) Temp. Heat Index Dew Point Humidity Pressure Visibility Wind Dir Wind Speed Gust Speed Precip Events Conditions
12:25 AM 71.6 °F - 69.8 °F 94% 29.56 in 6.0 mi SW 10.4 mph - N/A   Overcast
12:51 AM 73.0 °F - 69.1 °F 87% 29.55 in 8.0 mi SW 9.2 mph - N/A   Overcast
1:51 AM 73.0 °F - 69.1 °F 87% 29.54 in 10.0 mi SW 10.4 mph - N/A   Overcast
2:33 AM 73.4 °F - 69.8 °F 88% 29.54 in 10.0 mi SW 6.9 mph - 0.00 in Rain Light Rain
2:51 AM 73.0 °F - 69.1 °F 87% 29.53 in 10.0 mi SW 6.9 mph - 0.00 in   Overcast
3:51 AM 72.0 °F - 69.1 °F 91% 29.52 in 10.0 mi West 4.6 mph - N/A   Overcast
4:06 AM 71.6 °F - 69.8 °F 94% 29.53 in 10.0 mi WSW 4.6 mph - N/A   Overcast
4:31 AM 71.6 °F - 69.8 °F 94% 29.53 in 10.0 mi WSW 3.5 mph - N/A   Overcast
4:51 AM 72.0 °F - 69.1 °F 91% 29.52 in 10.0 mi WSW 4.6 mph - N/A   Overcast
5:51 AM 72.0 °F - 69.1 °F 91% 29.54 in 7.0 mi WSW 6.9 mph - 0.00 in Rain Light Rain
6:51 AM 72.0 °F - 69.1 °F 91% 29.55 in 9.0 mi West 4.6 mph - 0.00 in   Overcast
7:51 AM 73.0 °F - 68.0 °F 84% 29.56 in 10.0 mi West 8.1 mph - N/A   Overcast
8:11 AM 73.4 °F - 68.0 °F 83% 29.56 in 10.0 mi West 8.1 mph - N/A   Mostly Cloudy
8:30 AM 73.4 °F - 66.2 °F 78% 29.56 in 10.0 mi West 9.2 mph - N/A   Mostly Cloudy
8:51 AM 73.9 °F - 66.9 °F 79% 29.54 in 10.0 mi West 4.6 mph - N/A   Mostly Cloudy
9:12 AM 73.4 °F - 66.2 °F 78% 29.55 in 10.0 mi West 5.8 mph - N/A   Mostly Cloudy
9:24 AM 75.2 °F - 66.2 °F 73% 29.55 in 10.0 mi WNW 8.1 mph - N/A   Mostly Cloudy
9:33 AM 75.2 °F - 68.0 °F 78% 29.55 in 10.0 mi West 9.2 mph - N/A   Mostly Cloudy
9:40 AM 75.2 °F - 66.2 °F 73% 29.55 in 10.0 mi West 6.9 mph - N/A   Mostly Cloudy
9:51 AM 75.9 °F - 68.0 °F 76% 29.54 in 10.0 mi West 4.6 mph - N/A   Mostly Cloudy
10:09 AM 75.2 °F - 68.0 °F 78% 29.54 in 10.0 mi WSW 5.8 mph - N/A   Scattered Clouds
10:51 AM 79.0 °F - 68.0 °F 69% 29.55 in 10.0 mi WSW 6.9 mph - N/A   Scattered Clouds
11:51 AM 79.0 °F - 66.0 °F 64% 29.55 in 10.0 mi SW 3.5 mph - N/A   Scattered Clouds
12:51 PM 81.0 °F 83.0 °F 66.0 °F 60% 29.54 in 10.0 mi SW 8.1 mph - N/A   Scattered Clouds
1:51 PM 82.9 °F 85.4 °F 66.9 °F 58% 29.53 in 10.0 mi SW 9.2 mph - N/A   Mostly Cloudy
2:51 PM 84.0 °F 86.3 °F 66.0 °F 55% 29.51 in 10.0 mi SW 10.4 mph - N/A   Clear
3:51 PM 84.0 °F 86.3 °F 66.0 °F 55% 29.48 in 10.0 mi SW 5.8 mph 16.1 mph N/A   Partly Cloudy
4:51 PM 82.9 °F 85.4 °F 66.9 °F 58% 29.48 in 10.0 mi SSW 11.5 mph - N/A   Mostly Cloudy
5:51 PM 82.0 °F 83.8 °F 64.9 °F 56% 29.49 in 10.0 mi SSW 10.4 mph - N/A   Clear
6:51 PM 81.0 °F 83.8 °F 68.0 °F 65% 29.49 in 10.0 mi SSW 11.5 mph - N/A   Scattered Clouds
7:51 PM 73.0 °F - 63.0 °F 71% 29.53 in 10.0 mi WNW 10.4 mph 19.6 mph N/A   Overcast
8:51 PM 68.0 °F - 64.0 °F 87% 29.54 in 10.0 mi Calm Calm - N/A   Mostly Cloudy
9:51 PM 70.0 °F - 63.0 °F 78% 29.54 in 10.0 mi South 4.6 mph - N/A   Mostly Cloudy
10:51 PM 69.1 °F - 63.0 °F 81% 29.54 in 10.0 mi Calm Calm - N/A   Mostly Cloudy
11:51 PM 66.9 °F - 64.9 °F 93% 29.52 in 10.0 mi NW 3.5 mph - N/A   Partly Cloudy